Year,Month,Day,Hour,Minute,Value (Times are PST for temperature in C)
2009,07,04,00,00,21.90
2009,07,04,00,01,21.90
2009,07,04,00,02,21.90
2009,07,04,00,03,21.90
2009,07,04,00,04,21.80
2009,07,04,00,05,21.80
2009,07,04,00,06,21.80
2009,07,04,00,07,21.80
2009,07,04,00,08,21.80
2009,07,04,00,09,21.70
2009,07,04,00,10,21.70
2009,07,04,00,11,21.70
2009,07,04,00,12,21.70
2009,07,04,00,13,21.70
2009,07,04,00,14,21.60
2009,07,04,00,15,21.60
2009,07,04,00,16,21.60
2009,07,04,00,17,21.60
2009,07,04,00,18,21.50
2009,07,04,00,19,21.50
2009,07,04,00,20,21.50
2009,07,04,00,21,21.40
2009,07,04,00,22,21.40
2009,07,04,00,23,21.40
2009,07,04,00,24,21.40
2009,07,04,00,25,21.40
2009,07,04,00,26,21.30
2009,07,04,00,27,21.30
2009,07,04,00,28,21.30
2009,07,04,00,29,21.20
2009,07,04,00,30,21.20
2009,07,04,00,31,21.20
2009,07,04,00,32,21.10
2009,07,04,00,33,21.10
2009,07,04,00,34,21.00
2009,07,04,00,35,21.00
2009,07,04,00,36,20.90
2009,07,04,00,37,20.90
2009,07,04,00,38,20.90
2009,07,04,00,39,20.90
2009,07,04,00,40,20.90
2009,07,04,00,41,20.80
2009,07,04,00,42,20.80
2009,07,04,00,43,20.80
2009,07,04,00,44,20.80
2009,07,04,00,45,20.80
2009,07,04,00,46,20.80
2009,07,04,00,47,20.80
2009,07,04,00,48,20.70
2009,07,04,00,49,20.70
2009,07,04,00,50,20.70
2009,07,04,00,51,20.60
2009,07,04,00,52,20.60
2009,07,04,00,53,20.50
2009,07,04,00,54,20.50
2009,07,04,00,55,20.50
2009,07,04,00,56,20.40
2009,07,04,00,57,20.40
2009,07,04,00,58,20.40
2009,07,04,00,59,20.40
2009,07,04,01,00,20.40
2009,07,04,01,01,20.40
2009,07,04,01,02,20.40
2009,07,04,01,03,20.40
2009,07,04,01,04,20.40
2009,07,04,01,05,20.30
2009,07,04,01,06,20.30
2009,07,04,01,07,20.40
2009,07,04,01,08,20.40
2009,07,04,01,09,20.40
2009,07,04,01,10,20.40
2009,07,04,01,11,20.40
2009,07,04,01,12,20.40
2009,07,04,01,13,20.40
2009,07,04,01,14,20.40
2009,07,04,01,15,20.40
2009,07,04,01,16,20.40
2009,07,04,01,17,20.40
2009,07,04,01,18,20.40
2009,07,04,01,19,20.40
2009,07,04,01,20,20.50
2009,07,04,01,21,20.50
2009,07,04,01,22,20.60
2009,07,04,01,23,20.60
2009,07,04,01,24,20.60
2009,07,04,01,25,20.60
2009,07,04,01,26,20.70
2009,07,04,01,27,20.70
2009,07,04,01,28,20.70
2009,07,04,01,29,20.70
2009,07,04,01,30,20.70
2009,07,04,01,31,20.80
2009,07,04,01,32,20.80
2009,07,04,01,33,20.80
2009,07,04,01,34,20.80
2009,07,04,01,35,20.80
2009,07,04,01,36,20.80
2009,07,04,01,37,20.80
2009,07,04,01,38,20.80
2009,07,04,01,39,20.80
2009,07,04,01,40,20.80
2009,07,04,01,41,20.80
2009,07,04,01,42,20.80
2009,07,04,01,43,20.70
2009,07,04,01,44,20.70
2009,07,04,01,45,20.70
2009,07,04,01,46,20.70
2009,07,04,01,47,20.60
2009,07,04,01,48,20.60
2009,07,04,01,49,20.60
2009,07,04,01,50,20.50
2009,07,04,01,51,20.50
2009,07,04,01,52,20.50
2009,07,04,01,53,20.40
2009,07,04,01,54,20.40
2009,07,04,01,55,20.40
2009,07,04,01,56,20.40
2009,07,04,01,57,20.40
2009,07,04,01,58,20.30
2009,07,04,01,59,20.30
2009,07,04,02,00,20.30
2009,07,04,02,01,20.30
2009,07,04,02,02,20.30
2009,07,04,02,03,20.30
2009,07,04,02,04,20.30
2009,07,04,02,05,20.20
2009,07,04,02,06,20.20
2009,07,04,02,07,20.20
2009,07,04,02,08,20.20
2009,07,04,02,09,20.20
2009,07,04,02,10,20.20
2009,07,04,02,11,20.10
2009,07,04,02,12,20.10
2009,07,04,02,13,20.20
2009,07,04,02,14,20.20
2009,07,04,02,15,20.20
2009,07,04,02,16,20.20
2009,07,04,02,17,20.20
2009,07,04,02,18,20.10
2009,07,04,02,19,20.10
2009,07,04,02,20,20.10
2009,07,04,02,21,20.10
2009,07,04,02,22,20.10
2009,07,04,02,23,20.10
2009,07,04,02,24,20.10
2009,07,04,02,25,20.00
2009,07,04,02,26,20.00
2009,07,04,02,27,20.00
2009,07,04,02,28,20.00
2009,07,04,02,29,20.00
2009,07,04,02,30,20.00
2009,07,04,02,31,20.00
2009,07,04,02,32,19.90
2009,07,04,02,33,19.90
2009,07,04,02,34,19.90
2009,07,04,02,35,19.90
2009,07,04,02,36,19.90
2009,07,04,02,37,19.90
2009,07,04,02,38,19.80
2009,07,04,02,39,19.80
2009,07,04,02,40,19.80
2009,07,04,02,41,19.90
2009,07,04,02,42,19.90
2009,07,04,02,43,19.90
2009,07,04,02,44,19.90
2009,07,04,02,45,19.90
2009,07,04,02,46,19.80
2009,07,04,02,47,19.80
2009,07,04,02,48,19.80
2009,07,04,02,49,19.80
2009,07,04,02,50,19.80
2009,07,04,02,51,19.80
2009,07,04,02,52,19.70
2009,07,04,02,53,19.70
2009,07,04,02,54,19.70
2009,07,04,02,55,19.70
2009,07,04,02,56,19.70
2009,07,04,02,57,19.80
2009,07,04,02,58,19.80
2009,07,04,02,59,19.80
2009,07,04,03,00,19.80
2009,07,04,03,01,19.90
2009,07,04,03,02,19.90
2009,07,04,03,03,19.90
2009,07,04,03,04,19.90
2009,07,04,03,05,19.90
2009,07,04,03,06,19.80
2009,07,04,03,07,19.80
2009,07,04,03,08,19.80
2009,07,04,03,09,19.80
2009,07,04,03,10,19.80
2009,07,04,03,11,19.80
2009,07,04,03,12,19.80
2009,07,04,03,13,19.80
2009,07,04,03,14,19.80
2009,07,04,03,15,19.80
2009,07,04,03,16,19.80
2009,07,04,03,17,19.70
2009,07,04,03,18,19.70
2009,07,04,03,19,19.70
2009,07,04,03,20,19.70
2009,07,04,03,21,19.70
2009,07,04,03,22,19.70
2009,07,04,03,23,19.70
2009,07,04,03,24,19.70
2009,07,04,03,25,19.70
2009,07,04,03,26,19.60
2009,07,04,03,27,19.60
2009,07,04,03,28,19.60
2009,07,04,03,29,19.60
2009,07,04,03,30,19.60
2009,07,04,03,31,19.50
2009,07,04,03,32,19.50
2009,07,04,03,33,19.50
2009,07,04,03,34,19.60
2009,07,04,03,35,19.60
2009,07,04,03,36,19.50
2009,07,04,03,37,19.50
2009,07,04,03,38,19.40
2009,07,04,03,39,19.40
2009,07,04,03,40,19.40
2009,07,04,03,41,19.40
2009,07,04,03,42,19.40
2009,07,04,03,43,19.30
2009,07,04,03,44,19.30
2009,07,04,03,45,19.30
2009,07,04,03,46,19.30
2009,07,04,03,47,19.30
2009,07,04,03,48,19.20
2009,07,04,03,49,19.20
2009,07,04,03,50,19.20
2009,07,04,03,51,19.10
2009,07,04,03,52,19.10
2009,07,04,03,53,19.10
2009,07,04,03,54,19.00
2009,07,04,03,55,19.00
2009,07,04,03,56,18.90
2009,07,04,03,57,18.90
2009,07,04,03,58,18.90
2009,07,04,03,59,18.80
2009,07,04,04,00,18.80
2009,07,04,04,01,18.80
2009,07,04,04,02,18.80
2009,07,04,04,03,18.90
2009,07,04,04,04,18.90
2009,07,04,04,05,18.90
2009,07,04,04,06,18.90
2009,07,04,04,07,18.90
2009,07,04,04,08,18.80
2009,07,04,04,09,18.80
2009,07,04,04,10,18.80
2009,07,04,04,11,18.80
2009,07,04,04,12,18.80
2009,07,04,04,13,18.80
2009,07,04,04,14,18.80
2009,07,04,04,15,18.70
2009,07,04,04,16,18.70
2009,07,04,04,17,18.70
2009,07,04,04,18,18.70
2009,07,04,04,19,18.70
2009,07,04,04,20,18.70
2009,07,04,04,21,18.60
2009,07,04,04,22,18.60
2009,07,04,04,23,18.60
2009,07,04,04,24,18.60
2009,07,04,04,25,18.50
2009,07,04,04,26,18.50
2009,07,04,04,27,18.40
2009,07,04,04,28,18.40
2009,07,04,04,29,18.40
2009,07,04,04,30,18.40
2009,07,04,04,31,18.30
2009,07,04,04,32,18.30
2009,07,04,04,33,18.30
2009,07,04,04,34,18.30
2009,07,04,04,35,18.30
2009,07,04,04,36,18.30
2009,07,04,04,37,18.30
2009,07,04,04,38,18.30
2009,07,04,04,39,18.30
2009,07,04,04,40,18.30
2009,07,04,04,41,18.30
2009,07,04,04,42,18.20
2009,07,04,04,43,18.20
2009,07,04,04,44,18.20
2009,07,04,04,45,18.20
2009,07,04,04,46,18.20
2009,07,04,04,47,18.20
2009,07,04,04,48,18.20
2009,07,04,04,49,18.20
2009,07,04,04,50,18.10
2009,07,04,04,51,18.20
2009,07,04,04,52,18.20
2009,07,04,04,53,18.10
2009,07,04,04,54,18.10
2009,07,04,04,55,18.10
2009,07,04,04,56,18.10
2009,07,04,04,57,18.10
2009,07,04,04,58,18.10
2009,07,04,04,59,18.00
2009,07,04,05,00,18.00
2009,07,04,05,01,18.00
2009,07,04,05,02,17.90
2009,07,04,05,03,17.90
2009,07,04,05,04,17.80
2009,07,04,05,05,17.80
2009,07,04,05,06,17.70
2009,07,04,05,07,17.60
2009,07,04,05,08,17.60
2009,07,04,05,09,17.50
2009,07,04,05,10,17.50
2009,07,04,05,11,17.40
2009,07,04,05,12,17.40
2009,07,04,05,13,17.30
2009,07,04,05,14,17.30
2009,07,04,05,15,17.30
2009,07,04,05,16,17.20
2009,07,04,05,17,17.20
2009,07,04,05,18,17.20
2009,07,04,05,19,17.20
2009,07,04,05,20,17.10
2009,07,04,05,21,17.10
2009,07,04,05,22,17.10
2009,07,04,05,23,17.10
2009,07,04,05,24,17.10
2009,07,04,05,25,17.10
2009,07,04,05,26,17.10
2009,07,04,05,27,17.20
2009,07,04,05,28,17.20
2009,07,04,05,29,17.20
2009,07,04,05,30,17.20
2009,07,04,05,31,17.20
2009,07,04,05,32,17.20
2009,07,04,05,33,17.20
2009,07,04,05,34,17.20
2009,07,04,05,35,17.20
2009,07,04,05,36,17.20
2009,07,04,05,37,17.20
2009,07,04,05,38,17.20
2009,07,04,05,39,17.10
2009,07,04,05,40,17.10
2009,07,04,05,41,17.10
2009,07,04,05,42,17.10
2009,07,04,05,43,17.10
2009,07,04,05,44,17.10
2009,07,04,05,45,17.10
2009,07,04,05,46,17.10
2009,07,04,05,47,17.10
2009,07,04,05,48,17.10
2009,07,04,05,49,17.00
2009,07,04,05,50,17.00
2009,07,04,05,51,17.00
2009,07,04,05,52,17.00
2009,07,04,05,53,17.00
2009,07,04,05,54,17.00
2009,07,04,05,55,16.90
2009,07,04,05,56,16.90
2009,07,04,05,57,16.90
2009,07,04,05,58,16.90
2009,07,04,05,59,16.90
2009,07,04,06,00,16.90
2009,07,04,06,01,17.00
2009,07,04,06,02,17.00
2009,07,04,06,03,17.00
2009,07,04,06,04,17.00
2009,07,04,06,05,17.00
2009,07,04,06,06,17.00
2009,07,04,06,07,17.10
2009,07,04,06,08,17.10
2009,07,04,06,09,17.10
2009,07,04,06,10,17.10
2009,07,04,06,11,17.10
2009,07,04,06,12,17.10
2009,07,04,06,13,17.10
2009,07,04,06,14,17.10
2009,07,04,06,15,17.10
2009,07,04,06,16,17.10
2009,07,04,06,17,17.10
2009,07,04,06,18,17.10
2009,07,04,06,19,17.20
2009,07,04,06,20,17.20
2009,07,04,06,21,17.20
2009,07,04,06,22,17.30
2009,07,04,06,23,17.30
2009,07,04,06,24,17.30
2009,07,04,06,25,17.30
2009,07,04,06,26,17.30
2009,07,04,06,27,17.30
2009,07,04,06,28,17.30
2009,07,04,06,29,17.30
2009,07,04,06,30,17.30
2009,07,04,06,31,17.30
2009,07,04,06,32,17.30
2009,07,04,06,33,17.30
2009,07,04,06,34,17.30
2009,07,04,06,35,17.30
2009,07,04,06,36,17.30
2009,07,04,06,37,17.30
2009,07,04,06,38,17.30
2009,07,04,06,39,17.30
2009,07,04,06,40,17.30
2009,07,04,06,41,17.30
2009,07,04,06,42,17.30
2009,07,04,06,43,17.30
2009,07,04,06,44,17.30
2009,07,04,06,45,17.30
2009,07,04,06,46,17.30
2009,07,04,06,47,17.40
2009,07,04,06,48,17.40
2009,07,04,06,49,17.40
2009,07,04,06,50,17.50
2009,07,04,06,51,17.50
2009,07,04,06,52,17.60
2009,07,04,06,53,17.60
2009,07,04,06,54,17.60
2009,07,04,06,55,17.70
2009,07,04,06,56,17.70
2009,07,04,06,57,17.70
2009,07,04,06,58,17.70
2009,07,04,06,59,17.80
2009,07,04,07,00,17.80
2009,07,04,07,01,17.80
2009,07,04,07,02,17.80
2009,07,04,07,03,17.80
2009,07,04,07,04,17.80
2009,07,04,07,05,17.80
2009,07,04,07,06,17.90
2009,07,04,07,07,17.90
2009,07,04,07,08,17.90
2009,07,04,07,09,17.90
2009,07,04,07,10,17.90
2009,07,04,07,11,17.90
2009,07,04,07,12,18.00
2009,07,04,07,13,18.00
2009,07,04,07,14,18.00
2009,07,04,07,15,18.10
2009,07,04,07,16,18.10
2009,07,04,07,17,18.20
2009,07,04,07,18,18.20
2009,07,04,07,19,18.30
2009,07,04,07,20,18.30
2009,07,04,07,21,18.40
2009,07,04,07,22,18.40
2009,07,04,07,23,18.40
2009,07,04,07,24,18.40
2009,07,04,07,25,18.50
2009,07,04,07,26,18.50
2009,07,04,07,27,18.50
2009,07,04,07,28,18.50
2009,07,04,07,29,18.50
2009,07,04,07,30,18.50
2009,07,04,07,31,18.50
2009,07,04,07,32,18.50
2009,07,04,07,33,18.60
2009,07,04,07,34,18.60
2009,07,04,07,35,18.60
2009,07,04,07,36,18.60
2009,07,04,07,37,18.60
2009,07,04,07,38,18.70
2009,07,04,07,39,18.70
2009,07,04,07,40,18.70
2009,07,04,07,41,18.80
2009,07,04,07,42,18.80
2009,07,04,07,43,18.80
2009,07,04,07,44,18.80
2009,07,04,07,45,18.80
2009,07,04,07,46,18.90
2009,07,04,07,47,18.90
2009,07,04,07,48,18.90
2009,07,04,07,49,19.00
2009,07,04,07,50,19.00
2009,07,04,07,51,19.00
2009,07,04,07,52,19.00
2009,07,04,07,53,19.00
2009,07,04,07,54,19.10
2009,07,04,07,55,19.10
2009,07,04,07,56,19.10
2009,07,04,07,57,19.10
2009,07,04,07,58,19.10
2009,07,04,07,59,19.10
2009,07,04,08,00,19.10
2009,07,04,08,01,19.10
2009,07,04,08,02,19.10
2009,07,04,08,03,19.10
2009,07,04,08,04,19.10
2009,07,04,08,05,19.10
2009,07,04,08,06,19.10
2009,07,04,08,07,19.10
2009,07,04,08,08,19.10
2009,07,04,08,09,19.10
2009,07,04,08,10,19.10
2009,07,04,08,11,19.10
2009,07,04,08,12,19.10
2009,07,04,08,13,19.10
2009,07,04,08,14,19.10
2009,07,04,08,15,19.10
2009,07,04,08,16,19.10
2009,07,04,08,17,19.10
2009,07,04,08,18,19.10
2009,07,04,08,19,19.20
2009,07,04,08,20,19.20
2009,07,04,08,21,19.20
2009,07,04,08,22,19.20
2009,07,04,08,23,19.20
2009,07,04,08,24,19.20
2009,07,04,08,25,19.20
2009,07,04,08,26,19.20
2009,07,04,08,27,19.20
2009,07,04,08,28,19.20
2009,07,04,08,29,19.10
2009,07,04,08,30,19.10
2009,07,04,08,31,19.20
2009,07,04,08,32,19.20
2009,07,04,08,33,19.10
2009,07,04,08,34,19.10
2009,07,04,08,35,19.20
2009,07,04,08,36,19.20
2009,07,04,08,37,19.20
2009,07,04,08,38,19.30
2009,07,04,08,39,19.30
2009,07,04,08,40,19.40
2009,07,04,08,41,19.40
2009,07,04,08,42,19.50
2009,07,04,08,43,19.60
2009,07,04,08,44,19.60
2009,07,04,08,45,19.60
2009,07,04,08,46,19.60
2009,07,04,08,47,19.70
2009,07,04,08,48,19.70
2009,07,04,08,49,19.70
2009,07,04,08,50,19.80
2009,07,04,08,51,19.80
2009,07,04,08,52,19.80
2009,07,04,08,53,19.80
2009,07,04,08,54,19.80
2009,07,04,08,55,19.80
2009,07,04,08,56,19.80
2009,07,04,08,57,19.80
2009,07,04,08,58,19.90
2009,07,04,08,59,19.90
2009,07,04,09,00,19.90
2009,07,04,09,01,19.90
2009,07,04,09,02,19.90
2009,07,04,09,03,19.90
2009,07,04,09,04,19.80
2009,07,04,09,05,19.80
2009,07,04,09,06,19.80
2009,07,04,09,07,19.90
2009,07,04,09,08,19.90
2009,07,04,09,09,19.90
2009,07,04,09,10,19.90
2009,07,04,09,11,19.90
2009,07,04,09,12,19.90
2009,07,04,09,13,19.90
2009,07,04,09,14,19.90
2009,07,04,09,15,19.90
2009,07,04,09,16,19.90
2009,07,04,09,17,19.90
2009,07,04,09,18,20.00
2009,07,04,09,19,20.00
2009,07,04,09,20,20.10
2009,07,04,09,21,20.10
2009,07,04,09,22,20.20
2009,07,04,09,23,20.20
2009,07,04,09,24,20.20
2009,07,04,09,25,20.20
2009,07,04,09,26,20.30
2009,07,04,09,27,20.30
2009,07,04,09,28,20.30
2009,07,04,09,29,20.40
2009,07,04,09,30,20.40
2009,07,04,09,31,20.40
2009,07,04,09,32,20.40
2009,07,04,09,33,20.50
2009,07,04,09,34,20.50
2009,07,04,09,35,20.60
2009,07,04,09,36,20.70
2009,07,04,09,37,20.70
2009,07,04,09,38,20.70
2009,07,04,09,39,20.70
2009,07,04,09,40,20.70
2009,07,04,09,41,20.70
2009,07,04,09,42,20.80
2009,07,04,09,43,20.80
2009,07,04,09,44,20.80
2009,07,04,09,45,20.90
2009,07,04,09,46,20.90
2009,07,04,09,47,20.90
2009,07,04,09,48,21.00
2009,07,04,09,49,21.10
2009,07,04,09,50,21.10
2009,07,04,09,51,21.10
2009,07,04,09,52,21.20
2009,07,04,09,53,21.30
2009,07,04,09,54,21.30
2009,07,04,09,55,21.20
2009,07,04,09,56,21.20
2009,07,04,09,57,21.20
2009,07,04,09,58,21.20
2009,07,04,09,59,21.10
2009,07,04,10,00,21.10
2009,07,04,10,01,21.00
2009,07,04,10,02,20.90
2009,07,04,10,03,20.80
2009,07,04,10,04,20.70
2009,07,04,10,05,20.70
2009,07,04,10,06,20.70
2009,07,04,10,07,20.70
2009,07,04,10,08,20.80
2009,07,04,10,09,21.00
2009,07,04,10,10,21.10
2009,07,04,10,11,21.20
2009,07,04,10,12,21.20
2009,07,04,10,13,21.30
2009,07,04,10,14,21.30
2009,07,04,10,15,21.30
2009,07,04,10,16,21.20
2009,07,04,10,17,21.30
2009,07,04,10,18,21.30
2009,07,04,10,19,21.30
2009,07,04,10,20,21.30
2009,07,04,10,21,21.30
2009,07,04,10,22,21.30
2009,07,04,10,23,21.20
2009,07,04,10,24,21.10
2009,07,04,10,25,21.00
2009,07,04,10,26,20.90
2009,07,04,10,27,20.80
2009,07,04,10,28,20.80
2009,07,04,10,29,20.70
2009,07,04,10,30,20.70
2009,07,04,10,31,20.70
2009,07,04,10,32,20.70
2009,07,04,10,33,20.70
2009,07,04,10,34,20.80
2009,07,04,10,35,20.90
2009,07,04,10,36,20.90
2009,07,04,10,37,20.90
2009,07,04,10,38,21.00
2009,07,04,10,39,21.00
2009,07,04,10,40,21.10
2009,07,04,10,41,21.10
2009,07,04,10,42,21.20
2009,07,04,10,43,21.30
2009,07,04,10,44,21.40
2009,07,04,10,45,21.50
2009,07,04,10,46,21.60
2009,07,04,10,47,21.60
2009,07,04,10,48,21.80
2009,07,04,10,49,21.80
2009,07,04,10,50,21.90
2009,07,04,10,51,21.90
2009,07,04,10,52,21.90
2009,07,04,10,53,22.00
2009,07,04,10,54,22.20
2009,07,04,10,55,22.30
2009,07,04,10,56,22.30
2009,07,04,10,57,22.30
2009,07,04,10,58,22.30
2009,07,04,10,59,22.20
2009,07,04,11,00,22.10
2009,07,04,11,01,22.00
2009,07,04,11,02,21.90
2009,07,04,11,03,22.00
2009,07,04,11,04,22.00
2009,07,04,11,05,21.90
2009,07,04,11,06,21.90
2009,07,04,11,07,21.90
2009,07,04,11,08,21.80
2009,07,04,11,09,21.90
2009,07,04,11,10,21.90
2009,07,04,11,11,22.00
2009,07,04,11,12,22.00
2009,07,04,11,13,22.00
2009,07,04,11,14,22.00
2009,07,04,11,15,22.00
2009,07,04,11,16,22.00
2009,07,04,11,17,22.10
2009,07,04,11,18,22.10
2009,07,04,11,19,22.10
2009,07,04,11,20,22.10
2009,07,04,11,21,22.10
2009,07,04,11,22,22.10
2009,07,04,11,23,22.20
2009,07,04,11,24,22.10
2009,07,04,11,25,22.10
2009,07,04,11,26,22.20
2009,07,04,11,27,22.20
2009,07,04,11,28,22.20
2009,07,04,11,29,22.10
2009,07,04,11,30,22.10
2009,07,04,11,31,22.10
2009,07,04,11,32,22.00
2009,07,04,11,33,22.00
2009,07,04,11,34,22.10
2009,07,04,11,35,22.10
2009,07,04,11,36,22.30
2009,07,04,11,37,22.40
2009,07,04,11,38,22.40
2009,07,04,11,39,22.50
2009,07,04,11,40,22.50
2009,07,04,11,41,22.50
2009,07,04,11,42,22.50
2009,07,04,11,43,22.70
2009,07,04,11,44,22.60
2009,07,04,11,45,22.60
2009,07,04,11,46,22.60
2009,07,04,11,47,22.50
2009,07,04,11,48,22.50
2009,07,04,11,49,22.50
2009,07,04,11,50,22.50
2009,07,04,11,51,22.50
2009,07,04,11,52,22.40
2009,07,04,11,53,22.40
2009,07,04,11,54,22.50
2009,07,04,11,55,22.60
2009,07,04,11,56,22.70
2009,07,04,11,57,22.70
2009,07,04,11,58,22.80
2009,07,04,11,59,22.80
2009,07,04,12,00,22.90
2009,07,04,12,01,23.00
2009,07,04,12,02,23.00
2009,07,04,12,03,23.00
2009,07,04,12,04,23.10
2009,07,04,12,05,23.10
2009,07,04,12,06,23.10
2009,07,04,12,07,23.10
2009,07,04,12,08,23.00
2009,07,04,12,09,23.00
2009,07,04,12,10,22.90
2009,07,04,12,11,22.90
2009,07,04,12,12,23.00
2009,07,04,12,13,23.10
2009,07,04,12,14,23.20
2009,07,04,12,15,23.20
2009,07,04,12,16,23.30
2009,07,04,12,17,23.30
2009,07,04,12,18,23.40
2009,07,04,12,19,23.40
2009,07,04,12,20,23.40
2009,07,04,12,21,23.40
2009,07,04,12,22,23.40
2009,07,04,12,23,23.50
2009,07,04,12,24,23.50
2009,07,04,12,25,23.50
2009,07,04,12,26,23.50
2009,07,04,12,27,23.60
2009,07,04,12,28,23.60
2009,07,04,12,29,23.50
2009,07,04,12,30,23.40
2009,07,04,12,31,23.40
2009,07,04,12,32,23.40
2009,07,04,12,33,23.40
2009,07,04,12,34,23.40
2009,07,04,12,35,23.40
2009,07,04,12,36,23.50
2009,07,04,12,37,23.50
2009,07,04,12,38,23.60
2009,07,04,12,39,23.50
2009,07,04,12,40,23.40
2009,07,04,12,41,23.30
2009,07,04,12,42,23.10
2009,07,04,12,43,23.00
2009,07,04,12,44,22.90
2009,07,04,12,45,22.90
2009,07,04,12,46,22.90
2009,07,04,12,47,22.90
2009,07,04,12,48,23.00
2009,07,04,12,49,23.10
2009,07,04,12,50,23.10
2009,07,04,12,51,23.20
2009,07,04,12,52,23.30
2009,07,04,12,53,23.50
2009,07,04,12,54,23.60
2009,07,04,12,55,23.60
2009,07,04,12,56,23.70
2009,07,04,12,57,23.70
2009,07,04,12,58,23.60
2009,07,04,12,59,23.50
2009,07,04,13,00,23.50
2009,07,04,13,01,23.50
2009,07,04,13,02,23.50
2009,07,04,13,03,23.70
2009,07,04,13,04,23.80
2009,07,04,13,05,23.90
2009,07,04,13,06,24.00
2009,07,04,13,07,24.10
2009,07,04,13,08,24.10
2009,07,04,13,09,24.00
2009,07,04,13,10,24.00
2009,07,04,13,11,24.00
2009,07,04,13,12,24.10
2009,07,04,13,13,24.20
2009,07,04,13,14,24.20
2009,07,04,13,15,24.30
2009,07,04,13,16,24.40
2009,07,04,13,17,24.40
2009,07,04,13,18,24.30
2009,07,04,13,19,24.30
2009,07,04,13,20,24.30
2009,07,04,13,21,24.30
2009,07,04,13,22,24.30
2009,07,04,13,23,24.20
2009,07,04,13,24,24.10
2009,07,04,13,25,24.10
2009,07,04,13,26,23.90
2009,07,04,13,27,23.90
2009,07,04,13,28,23.80
2009,07,04,13,29,23.80
2009,07,04,13,30,23.80
2009,07,04,13,31,23.80
2009,07,04,13,32,23.80
2009,07,04,13,33,23.90
2009,07,04,13,34,24.00
2009,07,04,13,35,24.20
2009,07,04,13,36,24.30
2009,07,04,13,37,24.50
2009,07,04,13,38,24.60
2009,07,04,13,39,24.50
2009,07,04,13,40,24.50
2009,07,04,13,41,24.40
2009,07,04,13,42,24.40
2009,07,04,13,43,24.30
2009,07,04,13,44,24.30
2009,07,04,13,45,24.30
2009,07,04,13,46,24.20
2009,07,04,13,47,24.20
2009,07,04,13,48,24.20
2009,07,04,13,49,24.30
2009,07,04,13,50,24.40
2009,07,04,13,51,24.40
2009,07,04,13,52,24.40
2009,07,04,13,53,24.50
2009,07,04,13,54,24.60
2009,07,04,13,55,24.90
2009,07,04,13,56,25.00
2009,07,04,13,57,25.00
2009,07,04,13,58,24.90
2009,07,04,13,59,24.80
2009,07,04,14,00,24.90
2009,07,04,14,01,24.90
2009,07,04,14,02,24.90
2009,07,04,14,03,24.90
2009,07,04,14,04,24.80
2009,07,04,14,05,24.60
2009,07,04,14,06,24.50
2009,07,04,14,07,24.50
2009,07,04,14,08,24.50
2009,07,04,14,09,24.50
2009,07,04,14,10,24.40
2009,07,04,14,11,24.30
2009,07,04,14,12,24.30
2009,07,04,14,13,24.40
2009,07,04,14,14,24.40
2009,07,04,14,15,24.50
2009,07,04,14,16,24.60
2009,07,04,14,17,24.70
2009,07,04,14,18,24.80
2009,07,04,14,19,25.00
2009,07,04,14,20,25.10
2009,07,04,14,21,25.20
2009,07,04,14,22,25.10
2009,07,04,14,23,25.00
2009,07,04,14,24,25.00
2009,07,04,14,25,25.00
2009,07,04,14,26,25.00
2009,07,04,14,27,25.10
2009,07,04,14,28,25.20
2009,07,04,14,29,25.40
2009,07,04,14,30,25.60
2009,07,04,14,31,25.70
2009,07,04,14,32,25.70
2009,07,04,14,33,25.80
2009,07,04,14,34,25.70
2009,07,04,14,35,25.70
2009,07,04,14,36,25.70
2009,07,04,14,37,25.70
2009,07,04,14,38,25.80
2009,07,04,14,39,25.90
2009,07,04,14,40,25.90
2009,07,04,14,41,25.90
2009,07,04,14,42,25.90
2009,07,04,14,43,25.80
2009,07,04,14,44,25.90
2009,07,04,14,45,25.90
2009,07,04,14,46,25.90
2009,07,04,14,47,25.90
2009,07,04,14,48,25.90
2009,07,04,14,49,25.90
2009,07,04,14,50,25.70
2009,07,04,14,51,25.70
2009,07,04,14,52,25.70
2009,07,04,14,53,25.80
2009,07,04,14,54,25.90
2009,07,04,14,55,25.90
2009,07,04,14,56,25.90
2009,07,04,14,57,25.90
2009,07,04,14,58,25.90
2009,07,04,14,59,25.90
2009,07,04,15,00,25.90
2009,07,04,15,01,25.90
2009,07,04,15,02,25.90
2009,07,04,15,03,25.90
2009,07,04,15,04,25.90
2009,07,04,15,05,25.90
2009,07,04,15,06,25.90
2009,07,04,15,07,25.90
2009,07,04,15,08,26.10
2009,07,04,15,09,26.20
2009,07,04,15,10,26.20
2009,07,04,15,11,26.20
2009,07,04,15,12,26.10
2009,07,04,15,13,26.20
2009,07,04,15,14,26.10
2009,07,04,15,15,26.10
2009,07,04,15,16,26.00
2009,07,04,15,17,25.90
2009,07,04,15,18,25.90
2009,07,04,15,19,25.90
2009,07,04,15,20,25.90
2009,07,04,15,21,25.90
2009,07,04,15,22,25.90
2009,07,04,15,23,25.90
2009,07,04,15,24,25.90
2009,07,04,15,25,26.00
2009,07,04,15,26,26.10
2009,07,04,15,27,26.20
2009,07,04,15,28,26.10
2009,07,04,15,29,26.10
2009,07,04,15,30,26.10
2009,07,04,15,31,26.20
2009,07,04,15,32,26.10
2009,07,04,15,33,26.10
2009,07,04,15,34,26.00
2009,07,04,15,35,26.10
2009,07,04,15,36,26.10
2009,07,04,15,37,26.20
2009,07,04,15,38,26.20
2009,07,04,15,39,26.30
2009,07,04,15,40,26.30
2009,07,04,15,41,26.30
2009,07,04,15,42,26.30
2009,07,04,15,43,26.40
2009,07,04,15,44,26.40
2009,07,04,15,45,26.50
2009,07,04,15,46,26.50
2009,07,04,15,47,26.40
2009,07,04,15,48,26.50
2009,07,04,15,49,26.50
2009,07,04,15,50,26.40
2009,07,04,15,51,26.40
2009,07,04,15,52,26.30
2009,07,04,15,53,26.30
2009,07,04,15,54,26.30
2009,07,04,15,55,26.40
2009,07,04,15,56,26.40
2009,07,04,15,57,26.40
2009,07,04,15,58,26.40
2009,07,04,15,59,26.30
2009,07,04,16,00,26.30
2009,07,04,16,01,26.40
2009,07,04,16,02,26.40
2009,07,04,16,03,26.50
2009,07,04,16,04,26.50
2009,07,04,16,05,26.50
2009,07,04,16,06,26.50
2009,07,04,16,07,26.50
2009,07,04,16,08,26.40
2009,07,04,16,09,26.50
2009,07,04,16,10,26.50
2009,07,04,16,11,26.50
2009,07,04,16,12,26.50
2009,07,04,16,13,26.50
2009,07,04,16,14,26.40
2009,07,04,16,15,26.50
2009,07,04,16,16,26.60
2009,07,04,16,17,26.60
2009,07,04,16,18,26.60
2009,07,04,16,19,26.70
2009,07,04,16,20,26.80
2009,07,04,16,21,26.80
2009,07,04,16,22,26.80
2009,07,04,16,23,26.90
2009,07,04,16,24,26.90
2009,07,04,16,25,26.90
2009,07,04,16,26,26.90
2009,07,04,16,27,26.90
2009,07,04,16,28,26.80
2009,07,04,16,29,26.80
2009,07,04,16,30,26.80
2009,07,04,16,31,26.80
2009,07,04,16,32,26.80
2009,07,04,16,33,26.80
2009,07,04,16,34,26.80
2009,07,04,16,35,26.80
2009,07,04,16,36,26.80
2009,07,04,16,37,26.80
2009,07,04,16,38,26.90
2009,07,04,16,39,27.00
2009,07,04,16,40,27.10
2009,07,04,16,41,27.20
2009,07,04,16,42,27.20
2009,07,04,16,43,27.20
2009,07,04,16,44,27.20
2009,07,04,16,45,27.20
2009,07,04,16,46,27.20
2009,07,04,16,47,27.20
2009,07,04,16,48,27.20
2009,07,04,16,49,27.20
2009,07,04,16,50,27.10
2009,07,04,16,51,27.10
2009,07,04,16,52,27.10
2009,07,04,16,53,27.10
2009,07,04,16,54,27.10
2009,07,04,16,55,27.20
2009,07,04,16,56,27.30
2009,07,04,16,57,27.30
2009,07,04,16,58,27.30
2009,07,04,16,59,27.30
2009,07,04,17,00,27.30
2009,07,04,17,01,27.20
2009,07,04,17,02,27.20
2009,07,04,17,03,27.30
2009,07,04,17,04,27.30
2009,07,04,17,05,27.30
2009,07,04,17,06,27.30
2009,07,04,17,07,27.20
2009,07,04,17,08,27.20
2009,07,04,17,09,27.20
2009,07,04,17,10,27.10
2009,07,04,17,11,27.10
2009,07,04,17,12,27.10
2009,07,04,17,13,27.10
2009,07,04,17,14,27.10
2009,07,04,17,15,27.20
2009,07,04,17,16,27.20
2009,07,04,17,17,27.30
2009,07,04,17,18,27.30
2009,07,04,17,19,27.30